Weather in Shablikino

Russia / Oryol Oblast     52°51′13″N   35°11′23″E
temp.,
°C
wind,
m/s
gust,
m/s
humid.,
%
clouds,
%
prec.,
mm/h
press.,
hPa
HPBL,
m
12 april, mon
mon1200:00+7ene3768100 0.0 103096
03:00+5ene4974100 0.0 1030171
06:00+5ene51369100 0.0 1029287
09:00+5ene61282100 0.4 1028424
12:00+9e5983100 0.2 1026417
15:00+14e5871100 0.2 1025740
18:00+14ene5974100 0.0 1023347
21:00+11e41284100 0.0 1023186
13 april, tue
tue1300:00+10ese5147997 0.0 1022240
03:00+9se468399 0.0 102385
06:00+8se458480 0.0 102365
09:00+13se5970100 0.0 1023316
12:00+17se7105164 0.0 10221087
15:00+19se7104163 0.0 10211863
18:00+17sse4852100 0.0 1020207
21:00+13s397199 0.0 1021214
14 april, wed
wed1400:00+13sse5137093 0.0 1021535
03:00+11se41180100 0.0 1020328
06:00+9se378874 0.0 1020143
09:00+13se467221 0.0 1019377
12:00+17se4753100 0.0 10181239
15:00+18sse684464 0.0 10171661
18:00+14ssw4874100 0.3 1016254
21:00+12s4985100 0.9 1017374
15 april, thu
thu1500:00+12s3784100 0.3 1017161
03:00+10se2285100 0.4 101726
06:00+10se348899 0.1 101771
09:00+13e2374100 0.2 1017222
12:00+16ene3359100 0.1 1016687
15:00+17e4546100 0.2 10141416
18:00+16ene3554100 0.0 1013110
21:00+13ene4756100 0.0 101398
16 april, fri
fri1600:00+12n2265100 0.0 101224
03:00+11ene3469100 0.0 101159
06:00+11ne2270100 0.0 101128
09:00+12se4980100 0.1 1012524
12:00+13ene5874100 0.8 1013697
15:00+14e5667100 2.4 1013983
18:00+12e4682100 1.3 1013275
21:00+10ene81292100 2.0 1015431